Find Starlink 33937

NORAD ID: 63704 Int'l Des: 2025-087 Owner: SPXS Country: US Constellation: starlink operational
LEOCIRCULAR

Current View

Loading 3D Globe...

About Starlink 33937

Starlink 33937 (NORAD 63704) is a starlink constellation satellite (v2 mini) launched Apr 28, 2025 by SPXS of US. It operates in LEO, CIRCULAR orbit with a mass of 575.00 kg.

About Starlink 33937

Description loading...

Upcoming Passes

Passes for default location (London). Set your location on the main map for personalized predictions.

Altitude History

Loading altitude history...

Two-Line Element Set

1 63704U 25087H 26169.07890482 .00019308 00000-0 66206-3 0 9998
2 63704 53.1588 112.9758 0001117 90.2555 269.8574 15.30212420 64574
Epoch: Jun 18, 2026 • Age: 11 hours

Current Status

Altitude 494.4 km
Velocity 7.62 km/s
Sub-Earth Point -53.30°S, 71.57°W
Launch Date Apr 28, 2025
Age 1.1 years
Type internet

Technical Details

Classification Payload
Mass 575.00 kg
Dry Mass 530.00 kg
Total Mass 575.00 kg
Length 0.30 m
Diameter 4.10 m
Span 29.00 m
Shape Box + pan
Manufacturer SPXS
Bus Type Starlink V2MO
Phase Status In Orbit
Owner/State SPXS/US

Most Searched